Location: Stockholm
(59.3333°N, 18.0500°E)
Time: 01:24:50
(UTC+02:00)

ISS - Pass Details

Date: 23 May 2018
Orbit: 402 x 408 km, 51.6° (Epoch: 19 September)

Event Time Altitude Azimuth Distance (km) Brightness Sun altitude
Rises 00:30:53 0° 250° (WSW) 2,320 -0.2 -10.1°
Reaches altitude 10° 00:33:16 10° 234° (SW) 1,459 -1.3 -10.1°
Maximum altitude 00:35:49 21° 183° (S) 961 -2.6 -10.1°
Drops below altitude 10° 00:38:22 10° 131° (SE) 1,459 -1.4 -10.1°
Sets 00:40:45 0° 115° (ESE) 2,319 -0.2 -10.1°
